SCP
0 0 0 0 0 0 0 0 0 0 0 0 0 0 0 0 0 0 0 0 0 0 0 0 0 0 0 0 0 0 0 0 0 0 0 0 0 0 0 0 0 0 0
0 0 0 0 0 0 0 0 0 0 0 0 0 0 0 0 0 0 0 0 0 0 0 0 0 0 0 0 0 0 0 0 0 0 0 0 0 0 0 0 0 0 0
0 0 0 0 0 0 0 0 0 0 0 0 0 0 0 0 0 0 0 0 0 0 0 0 0 0 0 0 0 0 0 0 0 0 0 0 0 0 0 0 0 0 0
0 0 0 0 0 0 0 0 0 0 0 0 0 0 0 0 0 0 0 0 0 0 0 0 0 0 0 0 0 0 0 0 0 0 0 0 0 0 0 0 0 0 0
0 0 0 0 0 0 0 0 0 0 0 0 0 0 0 0 0 0 0 0 0 0 0 0 0 0 0 0 0 0 0 0 0 0 0 0 0 0 0 0 0 0 0
0 0 0 0 0 0 0 0 0 0 0 0 0 0 0 0 0 0 0 0 0 0 0 0 0 0 0 0 0 0 0 0 0 -0 0 0 0 0 0 0 0 0 0
0 0 0 0 0 0 0 0 0 0 0 0 0 0 0 0 0 0 0 0 0 0 0 0 0 0 0 0 0 0 0 0 -0 -0 -0 -0 0 -0 0 0 0 0 0
0 0 0 0 0 0 0 0 0 0 0 0 0 0 0 0 0 0 0 0 0 0 0 0 0 0 0 0 0 0 0 0 0 0 0 0 0 0 0 0 0 0 0
0 0 0 0 0 0 0 0 0 0 0 0 0 0 0 0 0 0 0 0 0 0 0 0 0 0 0 0 0 0 0 0 0 0 0 0 0 0 0 0 0 0 0
0 0 0 0 0 0 0 0 0 0 0 0 0 0 0 0 0 0 0 0 0 0 0 0 0 0 0 0 0 0 0 0 0 0 0 0 0 0 0 0 0 0 0
0 0 0 0 0 0 0 0 0 0 0 0 0 0 0 0 0 0 0 0 0 0 0 0 0 0 0 0 0 0 0 0 0 0 0 0 0 0 0 0 0 0 0
0 0 0 0 0 0 0 0 0 0 0 0 0 0 0 0 0 0 0 0 0 0 0 0 0 0 0 0 0 0 0 0 0 0 0 0 0 0 0 0 0 0 0
0 0 0 0 0 0 0 0 0 0 0 0 0 0 0 0 0 0 0 0 0 0 0 0 0 0 0 0 0 0 0 0 0 0 0 0 0 0 0 0 0 0 0
0 0 0 0 0 0 0 0 0 0 0 0 0 0 0 0 0 0 0 0 0 0 0 0 0 0 0 0 0 0 0 0 0 0 0 0 0 0 0 0 0 0 0
0 0 0 0 0 0 0 0 0 0 0 0 0 0 0 0 0 0 0 0 0 0 0 0 0 0 0 0 0 0 0 0 0 0 0 0 0 0 0 0 0 0 0
0 0 0 0 0 0 0 0 0 0 0 0 0 0 0 0 0 0 0 0 0 0 0 0 0 0 0 0 0 0 0 0 0 0 0 0 0 0 0 0 0 0 0
0 0 0 0 0 0 0 0 0 0 0 0 0 0 0 0 0 0 0 0 0 0 0 0 0 0 0 0 0 0 0 0 0 0 0 0 0 0 0 0 0 0 0
0 0 0 0 0 0 0 0 0 0 0 0 0 0 0 0 0 0 0 0 0 0 0 0 0 0 0 0 0 0 0 0 0 0 0 0 0 0 0 0 0 0 0
0 0 0 0 0 0 0 0 0 0 0 0 0 0 0 0 0 0 0 0 0 0 0 0 0 0 0 0 0 0 0 0 0 0 0 0 0 0 0 0 0 0 0
0 0 0 0 0 0 0 0 0 0 0 0 0 0 0 0 0 0 0 0 0 0 0 0 0 0 0 0 0 0 0 0 0 0 0 0 0 0 0 0 0 0 0
0 0 0 0 0 0 0 0 0 0 0 0 0 0 0 0 0 0 0 0 0 0 0 0 0 0 0 0 0 0 0 0 0 0 0 0 0 0 0 0 0 0 0
0 0 0 0 0 0 0 0 0 0 0 0 0 0 0 0 0 0 0 0 0 0 0 0 0 0 0 0 0 0 0 0 0 0 0 0 0 0 0 0 0 0 0
0 0 0 0 0 0 0 0 0 0 0 0 0 0 0 0 0 0 0 0 0 0 0 0 0 0 0 0 0 0 0 0 0 0 0 0 0 0 0 0 0 -0 0
0 0 0 0 0 0 0 0 0 0 0 0 0 0 0 0 0 0 0 0 0 0 0 0 0 0 0 0 0 0 0 0 0 0 0 0 0 0 0 0 -0 0 0
0 0 0 0 0 0 0 0 0 0 0 0 0 0 0 0 0 0 0 0 0 0 0 0 0 0 0 0 0 0 0 0 0 0 0 0 0 0 0 0 0 0 0
0 0 0 0 0 0 0 0 0 0 0 0 0 0 0 0 0 0 0 0 0 0 0 0 0 0 0 0 0 0 0 0 0 0 0 0 0 0 -0 0 0 0 0
Wind_Speed_500mb
6 4 2 3 3 1 2 3 4 3 3 4 3 4 5 8 13 15 17 19 20 22 24 26 28 29 29 27 26 27 28 27 26 25 24 23 22 21 27 27 26 27 27
13 10 7 5 3 3 4 5 6 6 7 7 7 8 9 11 15 18 21 23 25 28 30 32 33 34 36 36 36 35 32 30 33 33 32 30 29 30 29 33 31 30 37
20 17 15 13 11 10 9 9 9 9 10 11 11 11 14 16 21 25 28 30 33 36 38 38 39 40 39 34 36 39 43 42 43 40 44 41 39 38 38 36 41 38 39
26 25 23 20 19 18 17 15 15 14 14 14 14 15 18 22 27 32 35 38 40 43 46 46 45 43 43 40 39 39 44 46 50 51 54 52 56 52 44 40 47 47 45
32 30 29 26 26 25 23 22 22 22 21 21 22 23 25 28 34 42 42 41 42 46 48 47 47 46 46 45 43 41 41 48 46 52 60 61 68 68 65 62 62 61 56
37 36 33 31 31 30 29 27 25 26 27 30 33 38 40 43 45 42 48 41 35 34 37 38 38 41 44 43 47 44 46 45 49 52 55 58 61 75 71 80 72 81 72
43 42 39 35 35 34 30 28 28 29 31 34 43 43 44 42 47 43 37 27 42 32 32 32 34 38 40 48 47 46 50 53 55 58 59 61 65 70 77 61 78 79 78
50 50 46 44 38 37 35 32 32 30 32 34 35 37 44 45 30 37 40 44 40 37 28 35 38 39 44 45 47 50 55 61 60 63 66 69 70 73 75 77 71 66 72
52 51 48 45 44 45 41 41 40 40 38 37 40 38 21 18 53 54 52 44 48 41 38 40 43 48 50 50 50 54 56 59 66 69 70 72 74 77 79 84 85 77 85
47 49 49 47 47 47 47 45 43 53 49 40 43 43 40 46 48 45 59 57 52 56 55 50 49 52 50 50 48 49 49 51 53 60 66 67 68 70 71 72 75 81 87
40 47 49 47 48 50 48 48 47 46 52 52 41 36 39 45 50 50 49 59 62 60 62 54 53 50 47 44 47 50 48 51 52 53 56 57 62 66 68 70 71 70 71
37 42 43 43 44 46 46 47 46 47 45 44 37 34 40 34 37 35 45 57 66 71 64 59 57 55 53 54 47 46 52 57 53 55 55 64 61 64 71 76 73 71 70
36 32 34 35 36 35 35 36 39 38 37 37 33 37 40 39 39 43 50 61 67 72 70 59 55 56 55 51 53 63 67 66 66 65 66 63 64 69 73 70 73 75 74
34 35 34 33 29 29 26 27 28 30 31 32 35 36 40 43 42 47 47 50 64 59 63 57 66 51 52 63 66 69 70 69 69 68 68 69 71 74 74 72 74 80 83
31 32 33 32 31 30 26 27 28 32 27 31 35 37 39 39 37 38 39 41 39 43 69 68 57 68 68 68 68 71 76 75 77 76 76 75 79 79 79 81 83 86 85
37 31 31 30 17 23 27 26 26 25 35 35 32 32 32 32 32 34 37 39 41 48 61 71 77 76 75 75 73 75 76 78 79 79 81 83 85 85 84 83 84 84 88
28 28 30 31 31 30 27 29 30 28 27 25 25 27 29 30 33 36 38 42 44 49 66 83 80 83 85 85 86 84 83 82 83 84 85 84 83 82 82 82 83 83 82
30 28 27 26 29 27 23 22 20 18 18 20 23 26 30 34 37 42 46 48 52 54 64 81 85 88 88 89 89 91 88 85 83 80 80 76 75 69 67 72 72 74 80
30 28 26 25 22 20 17 14 13 14 17 22 27 32 36 40 42 44 48 52 55 59 63 72 86 86 88 88 92 89 89 87 82 82 82 77 60 71 74 69 74 81 79
30 27 25 24 20 16 13 11 12 17 22 27 30 34 37 40 44 48 51 55 60 63 65 71 77 82 83 84 80 89 98 89 93 92 68 77 75 87 77 72 74 75 73
31 26 23 18 14 11 10 12 18 22 24 27 31 36 40 44 48 52 55 55 57 60 63 68 73 77 80 84 79 81 86 96 96 75 81 80 103 91 82 77 74 75 73
27 22 18 14 10 11 15 19 23 25 28 32 36 40 44 46 47 48 49 51 53 56 60 63 69 71 77 75 77 76 82 84 93 91 90 101 93 91 87 77 78 69 68
24 20 15 13 13 16 18 21 26 30 34 37 40 40 41 42 44 46 48 49 50 49 54 55 63 65 72 69 70 80 86 85 85 91 87 99 97 89 83 89 77 58 56
22 17 14 12 14 19 24 27 29 33 35 36 35 36 37 38 41 45 51 55 55 55 56 54 58 65 64 66 68 70 69 76 82 82 75 93 84 90 92 86 60 46 81
20 15 12 14 20 26 32 34 32 31 29 28 30 32 36 41 46 51 54 58 61 62 60 59 56 59 61 55 52 57 63 68 88 87 74 55 84 93 92 81 60 83 74
17 12 12 20 30 34 31 31 29 26 24 26 27 30 38 44 49 52 55 60 64 64 62 67 68 64 57 54 48 47 55 67 67 80 61 79 80 73 83 78 86 76 69
Wind_Direction_500mb
203 183 118 96 103 159 213 236 264 280 258 251 276 289 318 341 345 344 346 349 352 349 346 343 341 338 335 332 330 329 328 328 325 319 307 304 297 277 260 266 262 244 244
226 228 227 238 244 266 264 254 267 277 279 287 284 277 293 312 321 325 329 330 332 332 331 329 326 325 325 323 320 319 319 317 321 322 312 297 294 287 269 268 264 254 252
239 241 242 245 251 254 259 264 271 278 279 283 284 279 288 296 307 312 316 318 320 321 319 317 315 314 312 306 298 302 305 312 312 313 318 312 313 302 293 276 276 262 254
247 247 245 246 249 252 256 262 265 270 276 279 278 281 289 293 299 301 304 309 312 312 309 307 304 304 303 297 296 292 294 292 291 297 302 300 299 295 292 296 288 280 260
245 256 253 248 249 254 256 259 263 268 270 277 280 280 281 287 290 296 301 306 305 302 305 302 301 299 298 296 291 288 285 287 286 284 287 279 283 278 284 284 289 284 276
251 254 254 253 255 258 261 265 273 278 286 287 288 284 282 287 295 305 303 300 309 303 304 301 301 303 302 299 299 293 291 290 289 290 290 286 288 280 281 264 282 280 271
251 254 258 260 262 263 270 273 274 279 280 279 282 286 293 299 303 302 309 310 309 308 306 305 300 303 301 296 297 299 294 293 290 290 286 281 281 276 277 283 272 268 257
252 253 255 258 261 266 269 273 276 278 282 286 292 300 311 304 312 307 306 307 311 308 307 305 305 306 303 296 292 289 291 291 289 286 285 281 279 279 279 277 280 281 273
250 252 253 257 259 261 264 269 273 274 275 281 284 287 292 290 310 311 310 313 318 312 306 303 302 301 301 293 289 286 287 285 284 284 284 285 283 280 280 280 278 279 279
254 255 255 255 258 261 263 267 269 279 277 271 274 282 291 290 298 294 308 312 309 312 311 311 305 305 303 298 293 294 292 293 287 284 284 286 288 288 288 285 282 278 276
251 253 255 255 257 261 264 264 265 269 268 265 282 275 294 289 296 281 299 308 307 303 306 304 306 309 308 307 304 299 295 293 294 289 288 287 290 287 289 291 292 291 289
253 250 251 253 256 259 262 263 263 264 268 273 280 276 292 298 302 297 303 305 302 298 303 310 314 316 317 316 312 306 305 302 299 298 294 289 294 293 287 286 290 292 291
253 249 250 250 254 258 262 264 261 262 264 266 275 275 281 293 287 295 294 295 299 302 306 308 312 318 316 316 315 313 311 311 308 306 303 298 292 290 287 289 289 291 291
245 243 244 248 248 254 253 260 258 262 260 261 270 280 278 283 287 284 288 293 299 303 305 312 317 320 317 313 311 310 308 307 306 304 304 299 294 291 294 286 283 283 286
238 243 243 247 250 241 254 256 258 253 258 272 278 278 280 283 289 294 298 301 299 304 308 314 316 314 310 309 310 309 308 308 307 306 304 302 302 300 298 293 289 285 286
239 242 243 240 240 228 253 258 254 269 269 272 275 279 285 292 296 301 303 305 305 298 292 302 306 310 312 314 314 312 311 308 306 306 303 302 303 303 301 298 295 290 287
227 229 232 238 248 248 240 245 250 256 261 269 278 286 293 301 304 305 308 306 304 302 299 303 309 313 314 317 319 319 318 316 313 311 310 308 307 304 301 299 295 293 287
220 218 219 222 231 232 228 232 239 251 267 280 290 299 302 303 305 307 307 309 307 306 305 307 312 315 318 321 320 319 320 318 318 320 319 318 315 309 308 306 303 302 298
209 208 206 207 210 215 219 231 253 270 286 296 301 302 307 309 309 310 310 311 311 311 312 312 314 317 320 323 322 320 319 321 322 323 325 320 319 321 319 310 300 302 301
202 193 193 199 204 214 228 252 282 298 302 302 305 308 308 310 314 316 315 315 316 316 317 316 316 317 320 322 322 324 321 324 325 327 327 326 318 317 319 318 319 315 311
194 194 197 202 210 231 262 285 293 296 300 305 307 312 315 318 320 319 319 321 321 321 320 318 317 318 320 323 324 325 322 324 323 329 319 314 319 321 323 326 323 318 314
195 197 203 214 235 263 283 295 299 303 310 312 315 317 319 320 321 321 323 323 323 323 321 320 319 319 320 320 322 324 323 319 315 317 316 316 323 324 326 326 326 322 312
200 205 216 237 265 284 293 299 307 315 316 316 315 315 316 319 322 322 320 319 319 320 317 317 315 316 315 320 322 316 311 312 310 314 320 317 324 322 326 327 331 322 319
209 218 234 260 282 294 304 311 310 309 310 311 315 321 323 325 324 324 323 325 326 323 324 323 316 315 315 314 306 307 309 309 310 313 316 314 324 324 326 330 338 325 325
214 228 252 289 304 310 308 299 298 301 307 316 322 325 328 331 333 334 330 326 323 324 323 318 313 309 310 311 313 312 314 315 313 317 326 316 320 325 329 336 338 331 328
221 245 277 301 297 284 285 290 294 303 314 317 326 331 336 336 332 329 325 323 322 324 320 319 314 314 318 320 319 315 314 313 316 320 318 320 322 333 331 331 334 344 339
Wind_Speed_850mb
6 4 2 3 3 1 2 3 4 3 3 4 3 4 5 8 13 15 17 19 20 22 24 26 28 29 29 27 26 27 28 27 26 25 24 23 22 21 27 27 26 27 27
13 10 7 5 3 3 4 5 6 6 7 7 7 8 9 11 15 18 21 23 25 28 30 32 33 34 36 36 36 35 32 30 33 33 32 30 29 30 29 33 31 30 37
20 17 15 13 11 10 9 9 9 9 10 11 11 11 14 16 21 25 28 30 33 36 38 38 39 40 39 34 36 39 43 42 43 40 44 41 39 38 38 36 41 38 39
26 25 23 20 19 18 17 15 15 14 14 14 14 15 18 22 27 32 35 38 40 43 46 46 45 43 43 40 39 39 44 46 50 51 54 52 56 52 44 40 47 47 45
32 30 29 26 26 25 23 22 22 22 21 21 22 23 25 28 34 42 42 41 42 46 48 47 47 46 46 45 43 41 41 48 46 52 60 61 68 68 65 62 62 61 56
37 36 33 31 31 30 29 27 25 26 27 30 33 38 40 43 45 42 48 41 35 34 37 38 38 41 44 43 47 44 46 45 49 52 55 58 61 75 71 80 72 81 72
43 42 39 35 35 34 30 28 28 29 31 34 43 43 44 42 47 43 37 27 42 32 32 32 34 38 40 48 47 46 50 53 55 58 59 61 65 70 77 61 78 79 78
50 50 46 44 38 37 35 32 32 30 32 34 35 37 44 45 30 37 40 44 40 37 28 35 38 39 44 45 47 50 55 61 60 63 66 69 70 73 75 77 71 66 72
52 51 48 45 44 45 41 41 40 40 38 37 40 38 21 18 53 54 52 44 48 41 38 40 43 48 50 50 50 54 56 59 66 69 70 72 74 77 79 84 85 77 85
47 49 49 47 47 47 47 45 43 53 49 40 43 43 40 46 48 45 59 57 52 56 55 50 49 52 50 50 48 49 49 51 53 60 66 67 68 70 71 72 75 81 87
40 47 49 47 48 50 48 48 47 46 52 52 41 36 39 45 50 50 49 59 62 60 62 54 53 50 47 44 47 50 48 51 52 53 56 57 62 66 68 70 71 70 71
37 42 43 43 44 46 46 47 46 47 45 44 37 34 40 34 37 35 45 57 66 71 64 59 57 55 53 54 47 46 52 57 53 55 55 64 61 64 71 76 73 71 70
36 32 34 35 36 35 35 36 39 38 37 37 33 37 40 39 39 43 50 61 67 72 70 59 55 56 55 51 53 63 67 66 66 65 66 63 64 69 73 70 73 75 74
34 35 34 33 29 29 26 27 28 30 31 32 35 36 40 43 42 47 47 50 64 59 63 57 66 51 52 63 66 69 70 69 69 68 68 69 71 74 74 72 74 80 83
31 32 33 32 31 30 26 27 28 32 27 31 35 37 39 39 37 38 39 41 39 43 69 68 57 68 68 68 68 71 76 75 77 76 76 75 79 79 79 81 83 86 85
37 31 31 30 17 23 27 26 26 25 35 35 32 32 32 32 32 34 37 39 41 48 61 71 77 76 75 75 73 75 76 78 79 79 81 83 85 85 84 83 84 84 88
28 28 30 31 31 30 27 29 30 28 27 25 25 27 29 30 33 36 38 42 44 49 66 83 80 83 85 85 86 84 83 82 83 84 85 84 83 82 82 82 83 83 82
30 28 27 26 29 27 23 22 20 18 18 20 23 26 30 34 37 42 46 48 52 54 64 81 85 88 88 89 89 91 88 85 83 80 80 76 75 69 67 72 72 74 80
30 28 26 25 22 20 17 14 13 14 17 22 27 32 36 40 42 44 48 52 55 59 63 72 86 86 88 88 92 89 89 87 82 82 82 77 60 71 74 69 74 81 79
30 27 25 24 20 16 13 11 12 17 22 27 30 34 37 40 44 48 51 55 60 63 65 71 77 82 83 84 80 89 98 89 93 92 68 77 75 87 77 72 74 75 73
31 26 23 18 14 11 10 12 18 22 24 27 31 36 40 44 48 52 55 55 57 60 63 68 73 77 80 84 79 81 86 96 96 75 81 80 103 91 82 77 74 75 73
27 22 18 14 10 11 15 19 23 25 28 32 36 40 44 46 47 48 49 51 53 56 60 63 69 71 77 75 77 76 82 84 93 91 90 101 93 91 87 77 78 69 68
24 20 15 13 13 16 18 21 26 30 34 37 40 40 41 42 44 46 48 49 50 49 54 55 63 65 72 69 70 80 86 85 85 91 87 99 97 89 83 89 77 58 56
22 17 14 12 14 19 24 27 29 33 35 36 35 36 37 38 41 45 51 55 55 55 56 54 58 65 64 66 68 70 69 76 82 82 75 93 84 90 92 86 60 46 81
20 15 12 14 20 26 32 34 32 31 29 28 30 32 36 41 46 51 54 58 61 62 60 59 56 59 61 55 52 57 63 68 88 87 74 55 84 93 92 81 60 83 74
17 12 12 20 30 34 31 31 29 26 24 26 27 30 38 44 49 52 55 60 64 64 62 67 68 64 57 54 48 47 55 67 67 80 61 79 80 73 83 78 86 76 69
Wind_Direction_850mb
203 183 118 96 103 159 213 236 264 280 258 251 276 289 318 341 345 344 346 349 352 349 346 343 341 338 335 332 330 329 328 328 325 319 307 304 297 277 260 266 262 244 244
226 228 227 238 244 266 264 254 267 277 279 287 284 277 293 312 321 325 329 330 332 332 331 329 326 325 325 323 320 319 319 317 321 322 312 297 294 287 269 268 264 254 252
239 241 242 245 251 254 259 264 271 278 279 283 284 279 288 296 307 312 316 318 320 321 319 317 315 314 312 306 298 302 305 312 312 313 318 312 313 302 293 276 276 262 254
247 247 245 246 249 252 256 262 265 270 276 279 278 281 289 293 299 301 304 309 312 312 309 307 304 304 303 297 296 292 294 292 291 297 302 300 299 295 292 296 288 280 260
245 256 253 248 249 254 256 259 263 268 270 277 280 280 281 287 290 296 301 306 305 302 305 302 301 299 298 296 291 288 285 287 286 284 287 279 283 278 284 284 289 284 276
251 254 254 253 255 258 261 265 273 278 286 287 288 284 282 287 295 305 303 300 309 303 304 301 301 303 302 299 299 293 291 290 289 290 290 286 288 280 281 264 282 280 271
251 254 258 260 262 263 270 273 274 279 280 279 282 286 293 299 303 302 309 310 309 308 306 305 300 303 301 296 297 299 294 293 290 290 286 281 281 276 277 283 272 268 257
252 253 255 258 261 266 269 273 276 278 282 286 292 300 311 304 312 307 306 307 311 308 307 305 305 306 303 296 292 289 291 291 289 286 285 281 279 279 279 277 280 281 273
250 252 253 257 259 261 264 269 273 274 275 281 284 287 292 290 310 311 310 313 318 312 306 303 302 301 301 293 289 286 287 285 284 284 284 285 283 280 280 280 278 279 279
254 255 255 255 258 261 263 267 269 279 277 271 274 282 291 290 298 294 308 312 309 312 311 311 305 305 303 298 293 294 292 293 287 284 284 286 288 288 288 285 282 278 276
251 253 255 255 257 261 264 264 265 269 268 265 282 275 294 289 296 281 299 308 307 303 306 304 306 309 308 307 304 299 295 293 294 289 288 287 290 287 289 291 292 291 289
253 250 251 253 256 259 262 263 263 264 268 273 280 276 292 298 302 297 303 305 302 298 303 310 314 316 317 316 312 306 305 302 299 298 294 289 294 293 287 286 290 292 291
253 249 250 250 254 258 262 264 261 262 264 266 275 275 281 293 287 295 294 295 299 302 306 308 312 318 316 316 315 313 311 311 308 306 303 298 292 290 287 289 289 291 291
245 243 244 248 248 254 253 260 258 262 260 261 270 280 278 283 287 284 288 293 299 303 305 312 317 320 317 313 311 310 308 307 306 304 304 299 294 291 294 286 283 283 286
238 243 243 247 250 241 254 256 258 253 258 272 278 278 280 283 289 294 298 301 299 304 308 314 316 314 310 309 310 309 308 308 307 306 304 302 302 300 298 293 289 285 286
239 242 243 240 240 228 253 258 254 269 269 272 275 279 285 292 296 301 303 305 305 298 292 302 306 310 312 314 314 312 311 308 306 306 303 302 303 303 301 298 295 290 287
227 229 232 238 248 248 240 245 250 256 261 269 278 286 293 301 304 305 308 306 304 302 299 303 309 313 314 317 319 319 318 316 313 311 310 308 307 304 301 299 295 293 287
220 218 219 222 231 232 228 232 239 251 267 280 290 299 302 303 305 307 307 309 307 306 305 307 312 315 318 321 320 319 320 318 318 320 319 318 315 309 308 306 303 302 298
209 208 206 207 210 215 219 231 253 270 286 296 301 302 307 309 309 310 310 311 311 311 312 312 314 317 320 323 322 320 319 321 322 323 325 320 319 321 319 310 300 302 301
202 193 193 199 204 214 228 252 282 298 302 302 305 308 308 310 314 316 315 315 316 316 317 316 316 317 320 322 322 324 321 324 325 327 327 326 318 317 319 318 319 315 311
194 194 197 202 210 231 262 285 293 296 300 305 307 312 315 318 320 319 319 321 321 321 320 318 317 318 320 323 324 325 322 324 323 329 319 314 319 321 323 326 323 318 314
195 197 203 214 235 263 283 295 299 303 310 312 315 317 319 320 321 321 323 323 323 323 321 320 319 319 320 320 322 324 323 319 315 317 316 316 323 324 326 326 326 322 312
200 205 216 237 265 284 293 299 307 315 316 316 315 315 316 319 322 322 320 319 319 320 317 317 315 316 315 320 322 316 311 312 310 314 320 317 324 322 326 327 331 322 319
209 218 234 260 282 294 304 311 310 309 310 311 315 321 323 325 324 324 323 325 326 323 324 323 316 315 315 314 306 307 309 309 310 313 316 314 324 324 326 330 338 325 325
214 228 252 289 304 310 308 299 298 301 307 316 322 325 328 331 333 334 330 326 323 324 323 318 313 309 310 311 313 312 314 315 313 317 326 316 320 325 329 336 338 331 328
221 245 277 301 297 284 285 290 294 303 314 317 326 331 336 336 332 329 325 323 322 324 320 319 314 314 318 320 319 315 314 313 316 320 318 320 322 333 331 331 334 344 339